Weather in Loyga

Russia / Arkhangel'skaya Oblast'     61°04′38″N   44°36′28″E
temp.,
°C
wind,
m/s
gust,
m/s
humid.,
%
clouds,
%
prec.,
mm/h
press.,
hPa
HPBL,
m
20 june, sun
sun2000:00+14nne22804 0.0 102042
03:00+12ene11696 0.0 102111
06:00+16se125232 0.0 1021164
09:00+19se235347 0.1 1021352
12:00+27ssw2644100 0.0 10192301
15:00+26se2351100 0.0 1017393
18:00+26ese235780 0.0 1016113
21:00+22s2265100 0.0 101645
21 june, mon
mon2100:00+18wsw23728 0.0 101660
03:00+19wsw286794 0.0 1017154
06:00+22w366674 0.0 1017215
09:00+28wnw374271 0.0 10171260
12:00+30wnw473313 0.0 10172652
15:00+32wnw46285 0.0 10162939
18:00+30nw36325 0.0 10161560
21:00+23wnw22535 0.0 101716
22 june, tue
tue2200:00+20wsw225610 0.0 101820
03:00+19w22620 0.0 101847
06:00+24w25560 0.0 1019172
09:00+30w24365 0.0 10181247
12:00+33wsw343174 0.0 10183417
15:00+25ssw246194 0.1 1019256
18:00+25ssw235863 0.5 101766
21:00+23wsw411674 0.5 1018423
23 june, wed
wed2300:00+19wnw398715 0.2 1019212
03:00+18w258883 0.3 1019104
06:00+22w237316 0.1 1019231
09:00+27wsw235158 0.1 1019815
12:00+31wsw233869 0.0 10181740
15:00+32wsw333274 0.0 10172519
18:00+32wsw24367 0.0 10162079
21:00+25s356111 0.0 101672
24 june, thu
thu2400:00+22s247588 0.0 101679
03:00+20sw378616 0.3 1016127
06:00+24sw246911 0.0 1016184
09:00+29w364752 0.0 1016867
12:00+32w483643 0.0 10162205
15:00+33wnw583115 0.0 10152825
18:00+31nw48355 0.0 10142127
21:00+23wnw22615 0.0 101518